period_start,C,m1,H,J0,J1,J2,J3,J4,J5,JA,JB,JC,JD,JJ,JK,JN,#
2017-03-15 00:01:12,0.15,5.35,0.00,24.19,26.75,30.00,14.41,49.63,1011.23,2028.98,1930.44,1958.63,2236.08,599.96,590.51,37.20,0000 0000 0000 0000 000000
2017-03-15 00:06:14,0.17,5.36,0.00,24.08,26.76,30.02,14.41,49.76,1011.14,2028.96,1928.76,1957.55,2234.78,600.13,590.98,37.25,0000 0000 0000 0000 000000
2017-03-15 00:11:15,0.15,5.37,0.00,24.13,26.77,30.02,14.33,49.68,1010.95,2028.97,1927.04,1956.47,2233.53,599.70,590.17,37.30,0000 0000 0000 0000 000000
2017-03-15 00:16:16,0.15,5.38,0.00,24.13,26.77,30.02,14.32,49.79,1010.83,2028.98,1925.54,1955.39,2232.34,600.01,590.43,37.35,0000 0000 0000 0000 000000
2017-03-15 00:21:17,0.12,5.39,0.00,24.09,26.77,30.02,14.34,49.88,1010.80,2028.98,1924.14,1954.36,2231.17,599.91,590.27,37.40,0000 0000 0000 0000 000000
2017-03-15 00:26:18,0.16,5.39,0.00,24.20,26.77,30.01,14.38,49.86,1010.86,2028.96,1922.53,1953.30,2229.89,600.30,590.63,37.45,0000 0000 0000 0000 000000
2017-03-15 00:31:20,0.17,5.40,0.00,24.06,26.77,30.03,14.31,49.95,1011.07,2028.92,1920.74,1952.04,2228.44,599.86,590.54,37.50,0000 0000 0000 0000 000000
2017-03-15 00:36:21,0.15,5.41,0.00,24.17,26.77,30.02,14.31,49.86,1011.06,2028.95,1919.18,1950.87,2227.12,600.02,590.45,37.55,0000 0000 0000 0000 000000
2017-03-15 00:41:23,0.18,5.42,0.00,24.27,26.77,30.01,14.31,49.65,1010.83,2028.97,1917.57,1949.71,2225.79,599.93,590.14,37.60,0000 0000 0000 0000 000000
2017-03-15 00:46:24,0.15,5.43,0.00,24.08,26.77,30.03,14.47,49.83,1010.78,2028.87,1915.88,1948.54,2224.53,600.19,590.61,37.65,0000 0000 0000 0000 000000
2017-03-15 00:51:26,0.14,5.43,0.00,24.05,26.78,30.02,14.42,49.72,1010.76,2028.79,1914.30,1947.50,2223.33,600.05,590.51,37.70,0000 0000 0000 0000 000000
2017-03-15 00:56:27,0.14,5.44,0.00,24.20,26.79,30.02,14.40,49.73,1010.76,2028.80,1912.70,1946.45,2222.00,599.90,590.12,37.75,0000 0000 0000 0000 000000
2017-03-15 01:01:28,0.19,5.45,0.00,24.28,26.80,30.02,14.24,49.59,1010.76,2028.90,1911.02,1945.29,2220.62,599.82,589.98,37.80,0000 0000 0000 0000 000000
2017-03-15 01:06:29,0.14,5.46,0.00,24.14,26.80,30.04,14.34,49.68,1010.76,2028.92,1909.36,1944.10,2219.35,599.99,590.26,37.86,0000 0000 0000 0000 000000
2017-03-15 01:11:31,0.14,5.47,0.00,24.00,26.80,30.03,14.36,49.77,1010.76,2028.88,1907.70,1943.05,2218.07,599.85,590.45,37.91,0000 0000 0000 0000 000000
2017-03-15 01:16:32,0.15,5.48,0.00,24.22,26.80,30.03,14.38,49.72,1010.76,2028.86,1906.19,1941.97,2216.84,600.13,590.30,37.96,0000 0000 0000 0000 000000
2017-03-15 01:21:33,0.16,5.48,0.00,24.23,26.80,30.04,14.27,49.59,1010.76,2028.81,1904.61,1940.86,2215.58,599.65,589.84,38.01,0000 0000 0000 0000 000000
2017-03-15 01:26:35,0.14,5.49,0.00,24.12,26.80,30.05,14.37,49.66,1010.76,2028.83,1903.09,1939.80,2214.46,600.22,590.61,38.06,0000 0000 0000 0000 000000
2017-03-15 01:31:36,0.16,5.50,0.00,24.10,26.81,30.05,14.29,49.72,1010.76,2028.84,1901.55,1938.75,2213.21,599.81,590.21,38.11,0000 0000 0000 0000 000000
2017-03-15 01:36:37,0.13,5.51,0.00,24.23,26.82,30.05,14.32,49.66,1010.76,2028.71,1899.95,1937.67,2211.91,600.08,590.20,38.16,0000 0000 0000 0000 000000
2017-03-15 01:41:39,0.18,5.51,0.00,24.09,26.82,30.06,14.35,49.84,1010.76,2028.70,1898.33,1936.52,2210.62,600.27,590.68,38.21,0000 0000 0000 0000 000000
2017-03-15 01:46:40,0.15,5.52,0.00,24.15,26.82,30.05,14.35,49.74,1010.76,2028.70,1896.75,1935.46,2209.41,600.26,590.59,38.26,0000 0000 0000 0000 000000
2017-03-15 01:51:41,0.14,5.53,0.00,24.11,26.82,30.05,14.32,49.63,1010.77,2028.70,1895.15,1934.38,2208.16,599.67,590.17,38.31,0000 0000 0000 0000 000000
2017-03-15 01:56:43,0.15,5.54,0.00,24.06,26.82,30.05,14.48,49.69,1010.79,2028.73,1893.73,1933.37,2206.93,600.41,590.88,38.36,0000 0000 0000 0000 000000
2017-03-15 02:01:44,0.13,5.55,0.00,24.25,26.82,30.04,14.33,49.63,1010.81,2028.51,1892.20,1932.28,2205.68,599.99,590.25,38.41,0000 0000 0000 0000 000000
2017-03-15 02:06:45,0.15,5.55,0.00,24.15,26.82,30.06,14.30,49.63,1010.82,2028.45,1890.59,1931.18,2204.48,599.86,590.18,38.46,0000 0000 0000 0000 000000
2017-03-15 02:11:46,0.14,5.56,0.00,23.98,26.82,30.04,14.40,49.67,1010.88,2028.25,1888.78,1929.93,2203.02,599.95,590.64,38.51,0000 0000 0000 0000 000000
2017-03-15 02:16:48,0.18,5.57,0.00,24.20,26.82,30.05,14.35,49.67,1010.80,2028.36,1887.19,1928.88,2201.75,600.15,590.32,38.56,0000 0000 0000 0000 000000
2017-03-15 02:21:49,0.16,5.58,0.00,24.14,26.82,30.05,14.28,49.65,1010.80,2028.45,1885.59,1927.85,2200.56,599.81,590.17,38.61,0000 0000 0000 0000 000000
2017-03-15 02:26:50,0.16,5.59,0.00,23.97,26.82,30.06,14.36,49.69,1010.77,2028.57,1884.05,1926.78,2199.43,599.95,590.67,38.66,0000 0000 0000 0000 000000
2017-03-15 02:31:52,0.16,5.59,0.00,24.14,26.82,30.05,14.35,49.62,1010.77,2028.54,1882.52,1925.73,2198.10,599.54,589.99,38.71,0000 0000 0000 0000 000000
2017-03-15 02:36:53,0.13,5.60,0.00,24.14,26.82,30.05,14.34,49.66,1010.76,2028.46,1880.97,1924.68,2196.88,600.15,590.36,38.77,0000 0000 0000 0000 000000
2017-03-15 02:41:54,0.15,5.61,0.00,23.94,26.82,30.05,14.37,49.61,1010.76,2028.31,1879.52,1923.65,2195.71,599.83,590.64,38.82,0000 0000 0000 0000 000000
2017-03-15 02:46:55,0.15,5.62,0.00,24.09,26.82,30.04,14.32,49.62,1010.76,2028.21,1877.88,1922.51,2194.42,600.03,590.51,38.87,0000 0000 0000 0000 000000
2017-03-15 02:51:57,0.15,5.63,0.00,24.20,26.82,30.05,14.37,49.56,1010.73,2028.26,1876.35,1921.48,2193.26,600.15,590.26,38.92,0000 0000 0000 0000 000000
2017-03-15 02:56:58,0.17,5.63,0.00,23.98,26.82,30.06,14.39,49.56,1010.64,2028.42,1874.80,1920.43,2192.03,600.21,590.77,38.97,0000 0000 0000 0000 000000
2017-03-15 03:01:59,0.16,5.64,0.00,24.02,26.82,30.06,14.40,49.62,1010.49,2028.42,1873.25,1919.46,2190.74,600.04,590.52,39.02,0000 0000 0000 0000 000000
2017-03-15 03:07:01,0.15,5.65,0.00,23.94,26.82,30.07,14.41,49.75,1010.33,2028.34,1871.64,1918.39,2189.51,600.07,590.46,39.07,0000 0000 0000 0000 000000
2017-03-15 03:12:02,0.13,5.66,0.00,24.07,26.83,30.06,14.32,49.61,1010.29,2028.30,1870.13,1917.34,2188.36,599.94,590.23,39.12,0000 0000 0000 0000 000000
2017-03-15 03:17:03,0.15,5.67,0.00,24.11,26.84,30.06,14.36,49.64,1010.28,2028.29,1868.68,1916.31,2187.15,599.72,589.73,39.17,0000 0000 0000 0000 000000
2017-03-15 03:22:04,0.14,5.67,0.00,23.94,26.84,30.07,14.44,49.73,1010.27,2028.25,1867.15,1915.26,2185.90,600.24,590.67,39.22,0000 0000 0000 0000 000000
2017-03-15 03:27:05,0.19,5.68,0.00,24.04,26.85,30.07,14.34,49.75,1010.27,2028.29,1865.67,1914.18,2184.70,599.92,590.30,39.27,0000 0000 0000 0000 000000
2017-03-15 03:32:07,0.13,5.69,0.00,24.15,26.85,30.07,14.27,49.64,1010.27,2028.40,1864.25,1913.18,2183.59,599.58,589.66,39.32,0000 0000 0000 0000 000000
2017-03-15 03:37:08,0.15,5.70,0.00,24.01,26.85,30.08,14.31,49.58,1010.27,2028.29,1862.63,1912.15,2182.36,600.07,590.56,39.37,0000 0000 0000 0000 000000
2017-03-15 03:42:09,0.13,5.70,0.00,23.93,26.85,30.08,14.32,49.61,1010.28,2028.15,1861.02,1911.05,2181.08,599.38,589.84,39.42,0000 0000 0000 0000 000000
2017-03-15 03:47:11,0.16,5.71,0.00,24.10,26.85,30.08,14.35,49.64,1010.28,2028.15,1859.64,1910.01,2179.87,599.90,590.07,39.47,0000 0000 0000 0000 000000
2017-03-15 03:52:12,0.12,5.72,0.00,24.22,26.85,30.08,14.30,49.69,1010.27,2028.06,1858.28,1909.03,2178.73,599.58,589.48,39.52,0000 0000 0000 0000 000000
2017-03-15 03:57:13,0.16,5.73,0.00,24.03,26.85,30.08,14.29,49.68,1010.27,2028.06,1856.66,1907.95,2177.54,599.62,590.10,39.57,0000 0000 0000 0000 000000
2017-03-15 04:02:14,0.14,5.74,0.00,24.07,26.85,30.08,14.40,49.75,1010.27,2028.05,1855.18,1906.87,2176.28,600.12,590.33,39.63,0000 0000 0000 0000 000000
2017-03-15 04:07:15,0.16,5.74,0.00,24.10,26.85,30.09,14.34,49.72,1010.27,2028.06,1853.73,1905.84,2175.12,599.80,589.89,39.68,0000 0000 0000 0000 000000
2017-03-15 04:12:16,0.15,5.75,0.00,23.96,26.86,30.09,14.46,49.86,1010.25,2028.05,1852.25,1904.79,2173.98,600.38,590.72,39.73,0000 0000 0000 0000 000000
2017-03-15 04:17:18,0.17,5.76,0.00,24.02,26.86,30.09,14.33,49.84,1010.11,2028.04,1850.65,1903.74,2172.72,599.88,590.09,39.78,0000 0000 0000 0000 000000
2017-03-15 04:22:19,0.15,5.77,0.00,24.13,26.87,30.09,14.31,49.82,1009.91,2028.03,1849.08,1902.69,2171.55,600.06,589.74,39.83,0000 0000 0000 0000 000000
2017-03-15 04:27:20,0.16,5.77,0.00,23.99,26.87,30.09,14.44,50.08,1009.97,2028.04,1847.58,1901.62,2170.38,600.24,590.39,39.88,0000 0000 0000 0000 000000
2017-03-15 04:32:22,0.12,5.78,0.00,24.04,26.87,30.09,14.46,50.00,1010.05,2028.03,1846.27,1900.63,2169.24,600.22,590.33,39.93,0000 0000 0000 0000 000000
2017-03-15 04:37:23,0.19,5.79,0.00,24.01,26.87,30.10,14.47,49.91,1010.05,2028.03,1844.48,1899.42,2167.78,600.20,590.36,39.98,0000 0000 0000 0000 000000
2017-03-15 04:42:25,0.16,5.80,0.00,23.96,26.87,30.09,14.24,49.73,1010.01,2028.03,1842.84,1898.14,2166.43,599.77,589.89,40.03,0000 0000 0000 0000 000000
2017-03-15 04:47:26,0.14,5.81,0.00,24.08,26.87,30.10,14.26,49.75,1009.91,2028.02,1841.39,1897.13,2165.27,599.69,589.63,40.08,0000 0000 0000 0000 000000
2017-03-15 04:52:27,0.15,5.82,0.00,24.05,26.87,30.11,14.37,49.88,1009.86,2028.02,1839.85,1896.13,2164.06,600.00,589.96,40.13,0000 0000 0000 0000 000000
2017-03-15 04:57:29,0.16,5.83,0.00,23.99,26.87,30.09,14.29,49.92,1009.82,2028.01,1838.30,1895.03,2162.82,600.19,590.28,40.18,0000 0000 0000 0000 000000
2017-03-15 05:02:31,0.14,5.83,0.00,24.13,26.87,30.10,14.36,49.86,1009.79,2028.00,1836.84,1894.02,2161.68,600.18,589.97,40.23,0000 0000 0000 0000 000000
2017-03-15 05:07:32,0.16,5.84,0.00,24.16,26.89,30.11,14.32,49.88,1009.80,2028.00,1835.47,1893.03,2160.53,599.66,589.34,40.28,0000 0000 0000 0000 000000
2017-03-15 05:12:34,0.16,5.85,0.00,24.06,26.90,30.10,14.49,49.98,1009.78,2028.00,1833.81,1892.00,2159.40,600.48,590.45,40.33,0000 0000 0000 0000 000000
2017-03-15 05:17:35,0.14,5.86,0.00,24.14,26.90,30.12,14.36,49.88,1009.79,2028.01,1832.45,1890.96,2158.16,600.14,589.88,40.38,0000 0000 0000 0000 000000
2017-03-15 05:22:37,0.16,5.86,0.00,24.25,26.90,30.13,14.19,49.89,1009.79,2028.00,1830.82,1889.90,2156.92,599.91,589.39,40.43,0000 0000 0000 0000 000000
2017-03-15 05:27:38,0.17,5.87,0.00,24.10,26.90,30.11,14.31,49.98,1009.78,2028.00,1829.26,1888.81,2155.69,599.90,589.69,40.48,0000 0000 0000 0000 000000
2017-03-15 05:32:39,0.15,5.88,0.00,24.09,26.90,30.13,14.42,49.97,1009.78,2028.00,1827.70,1887.84,2154.51,600.10,589.95,40.54,0000 0000 0000 0000 000000
2017-03-15 05:37:41,0.14,5.89,0.00,24.27,26.92,30.14,14.30,49.89,1009.78,2028.00,1826.32,1886.79,2153.32,599.80,589.31,40.59,0000 0000 0000 0000 000000
2017-03-15 05:42:42,0.16,5.90,0.00,24.11,26.92,30.14,14.34,50.02,1009.78,2028.00,1824.79,1885.73,2152.16,600.10,589.92,40.64,0000 0000 0000 0000 000000
2017-03-15 05:47:43,0.17,5.91,0.00,24.07,26.92,30.15,14.38,50.06,1009.78,2028.00,1823.19,1884.57,2150.82,600.35,590.18,40.69,0000 0000 0000 0000 000000
2017-03-15 05:52:45,0.15,5.91,0.00,24.03,26.92,30.15,14.52,50.19,1009.78,2027.99,1821.72,1883.58,2149.67,600.20,590.21,40.74,0000 0000 0000 0000 000000
2017-03-15 05:57:46,0.16,5.92,0.00,24.00,26.92,30.16,14.39,50.15,1009.78,2027.99,1820.13,1882.51,2148.43,599.82,589.84,40.79,0000 0000 0000 0000 000000
2017-03-15 06:02:48,0.15,5.93,0.00,24.07,26.92,30.17,14.26,49.97,1009.78,2027.99,1818.70,1881.54,2147.33,599.88,589.76,40.84,0000 0000 0000 0000 000000
2017-03-15 06:07:49,0.15,5.94,0.00,24.05,26.92,30.16,14.40,50.00,1009.78,2027.99,1817.19,1880.56,2146.17,600.06,589.93,40.89,0000 0000 0000 0000 000000
2017-03-15 06:12:50,0.16,5.95,0.00,24.03,26.92,30.15,14.35,49.92,1009.78,2027.99,1815.65,1879.53,2144.95,599.75,589.73,40.94,0000 0000 0000 0000 000000
2017-03-15 06:17:51,0.15,5.95,0.00,24.19,26.93,30.17,14.34,49.87,1009.78,2027.99,1814.19,1878.55,2143.79,600.12,589.71,40.99,0000 0000 0000 0000 000000
2017-03-15 06:22:53,0.17,5.96,0.00,24.10,26.93,30.16,14.26,49.77,1009.78,2027.99,1812.62,1877.50,2142.58,599.98,589.81,41.04,0000 0000 0000 0000 000000
2017-03-15 06:27:54,0.16,5.97,0.00,24.04,26.92,30.15,14.39,49.90,1009.78,2027.99,1810.97,1876.39,2141.33,599.92,589.90,41.09,0000 0000 0000 0000 000000
2017-03-15 06:32:55,0.15,5.98,0.00,24.05,26.92,30.16,14.38,49.83,1009.78,2027.99,1809.46,1875.34,2140.12,599.76,589.65,41.14,0000 0000 0000 0000 000000
2017-03-15 06:37:57,0.15,5.99,0.00,24.06,26.93,30.17,14.34,49.92,1009.78,2027.99,1808.03,1874.33,2139.01,599.80,589.74,41.19,0000 0000 0000 0000 000000
2017-03-15 06:42:58,0.15,6.00,0.00,24.03,26.93,30.17,14.42,50.08,1009.78,2027.99,1806.59,1873.42,2137.87,600.34,590.32,41.24,0000 0000 0000 0000 000000
2017-03-15 06:47:59,0.16,6.00,0.00,24.02,26.92,30.17,14.35,50.02,1009.78,2027.99,1805.05,1872.42,2136.71,599.96,589.90,41.29,0000 0000 0000 0000 000000
2017-03-15 06:53:00,0.16,6.01,0.00,24.06,26.93,30.18,14.39,50.08,1009.78,2027.99,1803.55,1871.35,2135.50,600.31,590.24,41.34,0000 0000 0000 0000 000000
2017-03-15 06:58:02,0.15,6.02,0.00,24.09,26.94,30.19,14.30,49.86,1009.75,2027.99,1802.00,1870.31,2134.31,599.70,589.60,41.40,0000 0000 0000 0000 000000
2017-03-15 07:03:03,0.15,6.03,0.00,24.07,26.93,30.17,14.29,50.08,1009.57,2027.99,1800.52,1869.29,2133.12,600.06,589.89,41.45,0000 0000 0000 0000 000000
2017-03-15 07:08:05,0.15,6.04,0.00,24.00,26.92,30.17,14.31,50.02,1009.35,2027.99,1799.02,1868.30,2131.97,599.85,589.61,41.50,0000 0000 0000 0000 000000
2017-03-15 07:13:06,0.16,6.04,0.00,24.03,26.92,30.18,14.36,50.05,1009.35,2027.99,1797.56,1867.35,2130.80,599.93,589.70,41.55,0000 0000 0000 0000 000000
2017-03-15 07:18:07,0.15,6.05,0.00,24.07,26.92,30.19,14.46,50.03,1009.43,2027.99,1796.06,1866.29,2129.64,600.32,590.01,41.60,0000 0000 0000 0000 000000
2017-03-15 07:23:08,0.16,6.06,0.00,24.03,26.92,30.17,14.29,50.01,1009.46,2027.99,1794.60,1865.31,2128.52,599.93,589.68,41.65,0000 0000 0000 0000 000000
2017-03-15 07:28:09,0.14,6.07,0.00,24.03,26.92,30.17,14.34,49.96,1009.55,2027.99,1793.16,1864.29,2127.36,600.25,590.00,41.70,0000 0000 0000 0000 000000
2017-03-15 07:33:10,0.15,6.08,0.00,24.01,26.92,30.18,14.43,50.08,1009.63,2027.99,1791.79,1863.32,2126.23,600.36,590.31,41.75,0000 0000 0000 0000 000000
2017-03-15 07:38:12,0.15,6.08,0.00,24.03,26.92,30.18,14.40,49.97,1009.70,2027.99,1790.40,1862.33,2125.11,600.15,590.14,41.80,0000 0000 0000 0000 000000
2017-03-15 07:43:13,0.15,6.09,0.00,24.03,26.92,30.18,14.43,49.97,1009.67,2027.99,1788.88,1861.37,2123.98,600.09,590.04,41.85,0000 0000 0000 0000 000000
2017-03-15 07:48:15,0.17,6.10,0.00,24.03,26.92,30.17,14.30,49.99,1009.46,2027.99,1787.44,1860.38,2122.79,599.80,589.58,41.90,0000 0000 0000 0000 000000
2017-03-15 07:53:16,0.16,6.11,0.00,24.05,26.92,30.16,14.47,50.00,1009.43,2027.99,1785.89,1859.35,2121.61,600.35,590.10,41.95,0000 0000 0000 0000 000000
2017-03-15 07:58:18,0.15,6.12,0.00,24.03,26.92,30.17,14.37,49.80,1009.54,2027.99,1784.45,1858.35,2120.50,599.94,589.76,42.00,0000 0000 0000 0000 000000
2017-03-15 08:03:19,0.15,6.12,0.00,24.04,26.92,30.18,14.43,49.88,1009.66,2027.99,1783.04,1857.37,2119.37,599.97,589.89,42.05,0000 0000 0000 0000 000000
2017-03-15 08:08:20,0.15,6.13,0.00,24.03,26.92,30.18,14.36,49.92,1009.73,2027.99,1781.62,1856.45,2118.28,600.07,590.05,42.10,0000 0000 0000 0000 000000
2017-03-15 08:13:22,0.13,6.14,0.00,24.05,26.92,30.19,14.29,49.93,1009.74,2027.99,1780.31,1855.54,2117.17,599.84,589.68,42.15,0000 0000 0000 0000 000000
2017-03-15 08:18:23,0.13,6.15,0.00,24.08,26.92,30.18,14.37,49.88,1009.75,2027.99,1778.87,1854.72,2116.02,600.42,590.26,42.20,0000 0000 0000 0000 000000
2017-03-15 08:23:24,0.15,6.15,0.00,24.06,26.92,30.16,14.42,49.93,1009.77,2027.99,1777.52,1853.74,2114.92,600.14,590.10,42.25,0000 0000 0000 0000 000000
2017-03-15 08:28:25,0.14,6.16,0.00,24.06,26.92,30.16,14.29,49.92,1009.77,2027.99,1776.16,1852.80,2113.80,599.94,589.76,42.30,0000 0000 0000 0000 000000
2017-03-15 08:33:27,0.17,6.17,0.00,24.08,26.92,30.17,14.47,49.92,1009.77,2027.99,1774.67,1851.84,2112.69,600.40,590.27,42.36,0000 0000 0000 0000 000000
2017-03-15 08:38:28,0.16,6.18,0.00,24.07,26.92,30.16,14.22,49.78,1009.76,2027.99,1773.13,1850.78,2111.48,599.90,589.79,42.41,0000 0000 0000 0000 000000
2017-03-15 08:43:29,0.16,6.19,0.00,24.07,26.92,30.18,14.35,49.83,1009.77,2027.98,1771.62,1849.80,2110.51,599.76,589.79,42.46,0000 0000 0000 0000 000000
2017-03-15 08:48:30,0.14,6.19,0.00,24.06,26.92,30.18,14.31,49.82,1009.76,2027.98,1770.23,1848.82,2109.41,599.96,589.85,42.51,0000 0000 0000 0000 000000
2017-03-15 08:53:32,0.16,6.20,0.00,24.05,26.92,30.18,14.40,49.90,1009.71,2027.99,1768.69,1847.83,2108.22,600.32,590.06,42.56,0000 0000 0000 0000 000000
2017-03-15 08:58:33,0.16,6.21,0.00,24.05,26.92,30.19,14.40,49.89,1009.67,2027.99,1767.24,1846.79,2107.07,600.21,590.07,42.61,0000 0000 0000 0000 000000
2017-03-15 09:03:34,0.17,6.22,0.00,24.04,26.92,30.19,14.42,49.98,1009.64,2027.99,1765.70,1845.76,2105.84,599.97,589.82,42.66,0000 0000 0000 0000 000000
2017-03-15 09:08:36,0.15,6.23,0.00,24.04,26.92,30.19,14.34,50.01,1009.67,2027.99,1764.28,1844.76,2104.70,599.90,589.68,42.71,0000 0000 0000 0000 000000
2017-03-15 09:13:37,0.14,6.23,0.00,24.02,26.92,30.20,14.37,49.96,1009.62,2027.98,1762.86,1843.83,2103.65,600.20,590.11,42.76,0000 0000 0000 0000 000000
2017-03-15 09:18:39,0.15,6.24,0.00,24.01,26.93,30.20,14.35,49.98,1009.47,2027.98,1761.60,1842.84,2102.56,600.07,590.02,42.81,0000 0000 0000 0000 000000
2017-03-15 09:23:40,0.15,6.25,0.00,24.03,26.93,30.20,14.28,50.03,1009.42,2027.96,1760.09,1841.82,2101.32,600.00,589.76,42.86,0000 0000 0000 0000 000000
2017-03-15 09:28:41,0.16,6.26,0.00,24.04,26.93,30.19,14.37,49.98,1009.54,2027.98,1758.68,1840.85,2100.18,600.33,590.28,42.91,0000 0000 0000 0000 000000
2017-03-15 09:33:42,0.14,6.27,0.00,24.05,26.93,30.19,14.40,49.91,1009.67,2027.96,1757.23,1839.92,2099.03,600.23,590.01,42.96,0000 0000 0000 0000 000000
2017-03-15 09:38:44,0.17,6.28,0.00,24.05,26.93,30.19,14.39,49.92,1009.68,2027.97,1755.77,1838.87,2097.91,600.15,590.07,43.01,0000 0000 0000 0000 000000
2017-03-15 09:43:45,0.18,6.28,0.00,24.04,26.92,30.19,14.33,49.97,1009.70,2027.97,1754.24,1837.77,2096.65,600.17,589.94,43.06,0000 0000 0000 0000 000000
2017-03-15 09:48:46,0.16,6.29,0.00,24.05,26.92,30.19,14.33,49.96,1009.68,2027.97,1752.70,1836.79,2095.51,599.91,589.82,43.11,0000 0000 0000 0000 000000
2017-03-15 09:53:48,0.14,6.30,0.00,24.05,26.92,30.18,14.32,49.99,1009.74,2027.95,1751.25,1835.83,2094.38,599.81,589.75,43.16,0000 0000 0000 0000 000000
2017-03-15 09:58:49,0.15,6.31,0.00,24.06,26.92,30.19,14.43,49.95,1009.74,2027.96,1749.79,1834.88,2093.27,600.06,589.99,43.22,0000 0000 0000 0000 000000
2017-03-15 10:03:50,0.14,6.32,0.00,24.07,26.92,30.19,14.31,49.87,1009.76,2027.95,1748.44,1833.94,2092.20,599.99,589.81,43.27,0000 0000 0000 0000 000000
2017-03-15 10:08:52,0.14,6.33,0.00,24.05,26.92,30.18,14.48,49.96,1009.77,2027.96,1747.04,1832.98,2091.10,600.17,590.10,43.32,0000 0000 0000 0000 000000
2017-03-15 10:13:53,0.16,6.33,0.00,24.05,26.92,30.19,14.37,49.88,1009.78,2027.97,1745.63,1832.03,2089.97,600.09,590.03,43.37,0000 0000 0000 0000 000000
2017-03-15 10:18:55,0.15,6.34,0.00,24.08,26.92,30.19,14.33,49.92,1009.77,2027.96,1744.22,1831.06,2088.85,600.08,589.92,43.42,0000 0000 0000 0000 000000
2017-03-15 10:23:56,0.16,6.35,0.00,24.09,26.92,30.18,14.41,49.98,1009.76,2027.97,1742.80,1830.10,2087.78,600.27,589.94,43.47,0000 0000 0000 0000 000000
2017-03-15 10:28:57,0.16,6.36,0.00,24.07,26.92,30.18,14.33,49.94,1009.76,2027.98,1741.43,1829.13,2086.70,599.69,589.57,43.52,0000 0000 0000 0000 000000
2017-03-15 10:33:58,0.15,6.37,0.00,24.08,26.92,30.19,14.40,49.98,1009.77,2027.97,1740.04,1828.22,2085.59,600.36,590.17,43.57,0000 0000 0000 0000 000000
2017-03-15 10:39:00,0.16,6.37,0.00,24.07,26.92,30.18,14.50,49.98,1009.77,2027.97,1738.61,1827.24,2084.48,600.62,590.46,43.62,0000 0000 0000 0000 000000
2017-03-15 10:44:01,0.15,6.38,0.00,24.05,26.92,30.18,14.43,49.90,1009.77,2027.98,1737.23,1826.29,2083.40,599.99,589.90,43.67,0000 0000 0000 0000 000000
2017-03-15 10:49:02,0.16,6.39,0.00,24.04,26.92,30.19,14.34,49.96,1009.78,2027.97,1735.78,1825.33,2082.30,599.69,589.67,43.72,0000 0000 0000 0000 000000
2017-03-15 10:54:04,0.15,6.40,0.00,24.04,26.92,30.19,14.31,49.93,1009.78,2027.99,1734.40,1824.41,2081.20,599.84,589.80,43.77,0000 0000 0000 0000 000000
2017-03-15 10:59:05,0.17,6.41,0.00,24.08,26.92,30.20,14.29,49.98,1009.78,2027.98,1732.90,1823.39,2080.00,600.15,590.11,43.82,0000 0000 0000 0000 000000
2017-03-15 11:04:06,0.16,6.41,0.00,24.06,26.92,30.20,14.34,49.99,1009.78,2027.99,1731.54,1822.41,2078.85,600.23,590.02,43.87,0000 0000 0000 0000 000000
2017-03-15 11:09:07,0.15,6.42,0.00,24.10,26.93,30.21,14.36,49.88,1009.78,2027.97,1730.15,1821.44,2077.75,600.15,589.98,43.92,0000 0000 0000 0000 000000
2017-03-15 11:14:08,0.17,6.43,0.00,24.08,26.94,30.21,14.35,49.92,1009.78,2027.97,1728.74,1820.47,2076.63,599.94,589.97,43.97,0000 0000 0000 0000 000000
2017-03-15 11:19:10,0.15,6.44,0.00,24.07,26.94,30.20,14.37,50.05,1009.78,2027.95,1727.44,1819.52,2075.53,600.19,590.08,44.02,0000 0000 0000 0000 000000
2017-03-15 11:24:11,0.14,6.44,0.00,24.05,26.94,30.21,14.28,49.83,1009.78,2027.95,1726.19,1818.57,2074.48,599.95,589.91,44.08,0000 0000 0000 0000 000000
2017-03-15 11:29:12,0.15,6.45,0.00,24.06,26.95,30.22,14.39,49.86,1009.78,2027.91,1724.77,1817.62,2073.36,599.87,589.80,44.13,0000 0000 0000 0000 000000
2017-03-15 11:34:13,0.15,6.46,0.00,24.05,26.95,30.21,14.44,49.87,1009.78,2027.96,1723.48,1816.73,2072.30,600.07,589.96,44.18,0000 0000 0000 0000 000000
2017-03-15 11:39:15,0.16,6.47,0.00,24.05,26.95,30.21,14.35,49.90,1009.78,2027.95,1721.94,1815.73,2071.18,599.69,589.49,44.23,0000 0000 0000 0000 000000
2017-03-15 11:44:16,0.14,6.48,0.00,24.05,26.95,30.21,14.36,49.96,1009.78,2027.93,1720.60,1814.79,2070.04,600.14,590.08,44.28,0000 0000 0000 0000 000000
2017-03-15 11:49:18,0.13,6.49,0.00,24.02,26.95,30.21,14.40,49.96,1009.78,2027.94,1719.34,1813.89,2068.99,600.06,590.05,44.33,0000 0000 0000 0000 000000
2017-03-15 11:54:19,0.14,6.49,0.00,24.02,26.95,30.21,14.38,49.91,1009.78,2027.94,1717.99,1812.96,2067.95,599.94,589.91,44.38,0000 0000 0000 0000 000000
2017-03-15 11:59:20,0.17,6.50,0.00,24.02,26.95,30.21,14.35,49.82,1009.78,2027.95,1716.70,1812.03,2066.89,600.20,590.22,44.43,0000 0000 0000 0000 000000
2017-03-15 12:04:22,0.16,6.51,0.00,24.00,26.95,30.20,14.37,49.97,1009.78,2027.96,1715.29,1811.07,2065.75,599.82,589.65,44.48,0000 0000 0000 0000 000000
2017-03-15 12:09:23,0.16,6.52,0.00,24.07,26.95,30.22,14.34,49.99,1009.78,2027.95,1713.85,1810.10,2064.64,599.93,589.88,44.53,0000 0000 0000 0000 000000
2017-03-15 12:14:24,0.16,6.52,0.00,24.07,26.95,30.22,14.28,50.02,1009.76,2027.95,1712.60,1809.15,2063.57,599.75,589.61,44.58,0000 0000 0000 0000 000000
2017-03-15 12:19:26,0.15,6.53,0.00,24.00,26.95,30.20,14.35,50.05,1009.73,2027.96,1711.22,1808.22,2062.44,600.14,590.17,44.63,0000 0000 0000 0000 000000
2017-03-15 12:24:27,0.16,6.54,0.00,24.07,26.95,30.21,14.41,49.98,1009.77,2027.95,1709.78,1807.31,2061.43,600.17,590.09,44.68,0000 0000 0000 0000 000000
2017-03-15 12:29:28,0.15,6.55,0.00,24.21,26.95,30.23,14.42,49.88,1009.78,2027.93,1708.60,1806.38,2060.37,600.27,589.76,44.73,0000 0000 0000 0000 000000
2017-03-15 12:34:30,0.15,6.56,0.00,24.08,26.96,30.22,14.44,49.91,1009.78,2027.92,1707.21,1805.39,2059.24,600.27,590.17,44.78,0000 0000 0000 0000 000000
2017-03-15 12:39:31,0.16,6.56,0.00,24.01,26.95,30.19,14.37,49.83,1009.78,2027.94,1705.79,1804.52,2058.18,599.85,589.89,44.83,0000 0000 0000 0000 000000
2017-03-15 12:44:32,0.15,6.57,0.00,24.14,26.95,30.20,14.38,49.85,1009.78,2027.93,1704.55,1803.59,2057.09,599.82,589.61,44.88,0000 0000 0000 0000 000000
2017-03-15 12:49:33,0.12,6.58,0.00,24.08,26.95,30.22,14.40,49.98,1009.78,2027.79,1703.40,1802.69,2056.00,600.18,590.03,44.93,0000 0000 0000 0000 000000
2017-03-15 12:54:35,0.13,6.59,0.00,24.02,26.95,30.20,14.37,49.83,1009.78,2027.62,1701.96,1801.69,2054.88,599.94,590.04,44.99,0000 0000 0000 0000 000000